This demonstration page uses our WeatherBlox Daily Observations layout. Learn more.

Left ArrowRight Arrow

Hourly Observations for August 14, 2018

Temp ( °F °C ) Dew Point ( °F °C ) Humidity (%) Winds ( mph kmh ) Pressure ( in mb ) Visibility ( mi km ) Precip ( " mm )
12:17 am 00:17 Partly Cloudy 66 19 66 19 100 100 Calm 30.06 1018 10 16.0934 N/A
12:36 am 00:36 Partly Cloudy 64 18 64 18 100 100 Calm 30.06 1018 10 16.0934 N/A
12:57 am 00:57 Clear 64 18 64 18 100 100 Calm 30.06 1018 7 11.26538 N/A
1:16 am 01:16 Clear 64 18 64 18 100 100 Calm 30.06 1018 10 16.0934 N/A
1:37 am 01:37 Clear 64 18 64 18 100 100 Calm 30.06 1018 7 11.26538 N/A
1:56 am 01:56 Clear 64 18 64 18 100 100 Calm 30.03 1017 10 16.0934 N/A
2:16 am 02:16 Clear 63 17 63 17 100 100 Calm 30.03 1017 7 11.26538 N/A
2:37 am 02:37 Clear 63 17 63 17 100 100 Calm 30.03 1017 10 16.0934 N/A
2:56 am 02:56 Clear 63 17 63 17 100 100 Calm 30.03 1017 10 16.0934 N/A
3:17 am 03:17 Clear 63 17 63 17 100 100 Calm 30.03 1017 4 6.43736 N/A
3:37 am 03:37 Clear 61 16 61 16 100 100 Calm 30.03 1017 5 8.0467 N/A
3:56 am 03:56 Clear 63 17 63 17 100 100 Calm 30.03 1017 5 8.0467 N/A
4:17 am 04:17 Clear 63 17 63 17 100 100 Calm 30.03 1017 5 8.0467 N/A
4:36 am 04:36 Partly Cloudy 63 17 63 17 100 100 Calm 30.03 1017 7 11.26538 N/A
4:57 am 04:57 Mostly Cloudy 64 18 64 18 100 100 Calm 30.03 1017 7 11.26538 N/A
5:17 am 05:17 Cloudy 64 18 64 18 100 100 Calm 30.03 1017 7 11.26538 N/A
5:36 am 05:36 Cloudy 64 18 64 18 100 100 Calm 30.03 1017 7 11.26538 N/A
5:57 am 05:57 Cloudy 66 19 66 19 100 100 Calm 30.03 1017 10 16.0934 N/A
6:16 am 06:16 Mostly Cloudy 64 18 64 18 100 100 Calm 30.03 1017 7 11.26538 N/A
6:36 am 06:36 Clear 64 18 64 18 100 100 Calm 30.03 1017 7 11.26538 N/A
6:57 am 06:57 Sunny 64 18 64 18 100 100 Calm 30.03 1017 5 8.0467 N/A
7:16 am 07:16 Sunny 63 17 63 17 100 100 Calm 30.03 1017 4 6.43736 N/A
7:37 am 07:37 Mostly Cloudy 64 18 64 18 100 100 Calm 30.03 1017 7 11.26538 N/A
7:56 am 07:56 Cloudy 64 18 64 18 100 100 Calm 30.03 1017 7 11.26538 N/A
8:16 am 08:16 Partly Cloudy 66 19 66 19 100 100 Calm 30.06 1018 10 16.0934 N/A
8:37 am 08:37 Partly Cloudy 68 20 68 20 100 100 Calm 30.06 1018 10 16.0934 N/A
8:56 am 08:56 Partly Cloudy 68 20 68 20 100 100 SW 3 6 30.06 1018 10 16.0934 N/A
9:17 am 09:17 Sunny 72 22 70 21 94 94 Calm 30.03 1017 10 16.0934 N/A
9:36 am 09:36 Mostly Cloudy 73 23 72 22 94 94 WSW 3 6 30.03 1017 10 16.0934 N/A
9:56 am 09:56 Partly Cloudy 73 23 72 22 94 94 Calm 30.03 1017 10 16.0934 N/A
10:16 am 10:16 Sunny 77 25 72 22 83 83 Calm 30.03 1017 10 16.0934 N/A
10:36 am 10:36 Sunny 79 26 70 21 74 74 WNW 3 6 30.03 1017 10 16.0934 N/A
10:57 am 10:57 Sunny 79 26 72 22 79 79 Calm 30.03 1017 10 16.0934 N/A
11:16 am 11:16 Sunny 81 27 72 22 74 74 Calm 30.03 1017 10 16.0934 N/A
11:37 am 11:37 Sunny 81 27 72 22 74 74 Calm 30.03 1017 10 16.0934 N/A
11:57 am 11:57 Sunny 82 28 70 21 66 66 NW 3 6 30.03 1017 10 16.0934 N/A
12:16 pm 12:16 Sunny 82 28 70 21 66 66 NW 6 9 30.03 1017 10 16.0934 N/A
12:37 pm 12:37 Partly Cloudy 82 28 70 21 66 66 Calm 30.03 1017 10 16.0934 N/A
12:56 pm 12:56 Mostly Cloudy 81 27 72 22 74 74 Calm 30.03 1017 10 16.0934 N/A
1:16 pm 13:16 Partly Cloudy 79 26 72 22 79 79 W 3 6 30.03 1017 10 16.0934 N/A
1:37 pm 13:37 Partly Cloudy 82 28 70 21 66 66 Calm 30.03 1017 10 16.0934 N/A
1:56 pm 13:56 Partly Cloudy 84 29 70 21 62 62 Calm 30 1016 10 16.0934 N/A
2:17 pm 14:17 Partly Cloudy 84 29 72 22 66 66 SSW 6 9 30 1016 10 16.0934 N/A
2:36 pm 14:36 Mostly Cloudy 84 29 70 21 62 62 WNW 3 6 30 1016 10 16.0934 N/A
2:56 pm 14:56 Mostly Cloudy 84 29 72 22 66 66 S 8 13 30 1016 10 16.0934 N/A
3:17 pm 15:17 Mostly Cloudy 84 29 72 22 66 66 SSW 6 9 30 1016 10 16.0934 N/A
3:36 pm 15:36 Mostly Cloudy 82 28 72 22 70 70 SSE 3 6 30 1016 10 16.0934 N/A
3:57 pm 15:57 Mostly Cloudy 82 28 72 22 70 70 Calm 30 1016 10 16.0934 N/A
4:16 pm 16:16 Partly Cloudy 82 28 72 22 70 70 Calm 30 1016 10 16.0934 N/A
4:36 pm 16:36 Mostly Cloudy 82 28 70 21 66 66 Calm 29.97 1015 10 16.0934 N/A
4:56 pm 16:56 Cloudy 82 28 72 22 70 70 Calm 29.97 1015 10 16.0934 N/A
5:16 pm 17:16 Mostly Cloudy 82 28 73 23 74 74 WSW 3 6 29.97 1015 10 16.0934 N/A
5:37 pm 17:37 Mostly Cloudy 82 28 72 22 70 70 Calm 29.97 1015 10 16.0934 N/A
5:56 pm 17:56 Mostly Cloudy 82 28 73 23 74 74 WSW 3 6 29.97 1015 10 16.0934 N/A
6:17 pm 18:17 Cloudy 81 27 72 22 74 74 WSW 6 9 29.97 1015 10 16.0934 N/A
6:36 pm 18:36 Mostly Cloudy 82 28 72 22 70 70 W 5 7 29.97 1015 10 16.0934 N/A
6:56 pm 18:56 Mostly Cloudy 82 28 73 23 74 74 Calm 29.97 1015 10 16.0934 N/A
7:17 pm 19:17 Partly Cloudy 81 27 72 22 74 74 Calm 29.97 1015 10 16.0934 N/A
7:36 pm 19:36 Sunny 79 26 75 24 89 89 Calm 29.97 1015 10 16.0934 N/A
7:57 pm 19:57 Mostly Cloudy 79 26 72 22 79 79 Calm 29.97 1015 10 16.0934 N/A
8:16 pm 20:16 Partly Cloudy 77 25 72 22 83 83 Calm 29.97 1015 10 16.0934 N/A
8:37 pm 20:37 Sunny 75 24 72 22 89 89 Calm 29.97 1015 10 16.0934 N/A
8:57 pm 20:57 Clear 73 23 72 22 94 94 Calm 29.97 1015 10 16.0934 N/A
9:16 pm 21:16 Clear 72 22 72 22 100 100 Calm 29.97 1015 10 16.0934 N/A
9:37 pm 21:37 Clear 72 22 72 22 100 100 Calm 29.97 1015 10 16.0934 N/A
9:56 pm 21:56 Clear 70 21 70 21 100 100 Calm 30 1016 10 16.0934 N/A
10:17 pm 22:17 Clear 70 21 70 21 100 100 Calm 30 1016 10 16.0934 N/A
10:36 pm 22:36 Clear 70 21 70 21 100 100 Calm 30 1016 10 16.0934 N/A
10:56 pm 22:56 Clear 68 20 68 20 100 100 Calm 30.03 1017 10 16.0934 N/A
11:17 pm 23:17 Clear 68 20 68 20 100 100 Calm 30.03 1017 10 16.0934 N/A
11:36 pm 23:36 Clear 68 20 68 20 100 100 Calm 30.03 1017 10 16.0934 N/A
11:57 pm 23:57 Clear 66 19 66 19 100 100 Calm 30.03 1017 10 16.0934 N/A

Powered by AerisWeather